Weather History for Leadville, CO

Change the Weather History Date:

Monday, March 3, 2014

  Actual Average Record
Temperature  
Mean Temperature 23 °F -  
Max Temperature 33 °F 34 °F 48 °F (1986)
Min Temperature 12 °F 8 °F -18 °F (2002)
Degree Days  
Heating Degree Days 42 44  
Month to date heating degree days 126 132  
Since 1 July heating degree days 7631 7842  
Cooling Degree Days 0 0  
Month to date cooling degree days 0 0  
Year to date cooling degree days 0 0  
Moisture  
Dew Point 14 °F    
Average Humidity 64    
Maximum Humidity 80    
Minimum Humidity 47    
Precipitation  
Precipitation T in 0.03 in 0.24 in (1989)
Month to date precipitation 0.32 0.08  
Year to date precipitation 4.49 1.40  
Sea Level Pressure  
Sea Level Pressure 30.00 in    
Wind  
Wind Speed 9 mph (NNW)    
Max Wind Speed 20 mph    
Max Gust Speed 37 mph    
Visibility 10 miles    
Events Snow    
T = Trace of Precipitation, MM = Missing Value Source: NWS Daily Summary

Daily Weather History Graph

Daily Weather History Graph

Search for Another Location

Airport:

Trip Planner

Search our weather history database for the weather conditions in past years. The results will help you decide how hot, cold, wet, or windy it might be!

Date:

Astronomy

Mar. 03, 2014 Rise Set
Actual Time 6:34 AM MST 5:59 PM MST
Civil Twilight 6:08 AM MST 6:26 PM MST
Nautical Twilight 5:37 AM MST 6:57 PM MST
Astronomical Twilight 5:06 AM MST 7:28 PM MST
Moon 7:46 AM MST (3/3) 9:04 PM MST (3/3)
Length of Visible Light 12h 18m
Length of Day
11h 25m
Waxing Crescent, 8% of the Moon is Illuminated
Mar 3
Waxing Crescent
Mar 8
First Quarter
Mar 16
Full
Mar 23
Last Quarter
Mar 30
New

Hourly Weather History & Observations

Time (MST) Temp. Windchill Dew Point Humidity Pressure Visibility Wind Dir Wind Speed Gust Speed Precip Events Conditions
12:53 AM 24.1 °F 19.7 °F 15.1 °F 69% 29.98 in 10.0 mi Variable 3.5 mph - N/A   Overcast
1:53 AM 21.9 °F 12.5 °F 14.0 °F 72% 29.98 in 10.0 mi NNE 8.1 mph - N/A   Overcast
2:53 AM 19.9 °F 8.6 °F 12.0 °F 71% 29.99 in 10.0 mi NNE 10.4 mph - N/A   Clear
3:53 AM 19.9 °F 7.9 °F 12.0 °F 71% 29.99 in 10.0 mi North 11.5 mph - N/A   Clear
4:53 AM 19.0 °F 9.0 °F 10.9 °F 71% 29.98 in 10.0 mi NNW 8.1 mph - N/A   Clear
5:53 AM 21.0 °F 12.4 °F 12.0 °F 68% 30.01 in 10.0 mi NW 6.9 mph - N/A   Overcast
6:53 AM 21.9 °F 15.7 °F 12.9 °F 68% 30.02 in 10.0 mi Variable 4.6 mph - N/A   Mostly Cloudy
7:53 AM 25.0 °F 17.1 °F 15.1 °F 66% 30.01 in 8.0 mi NNW 6.9 mph - 0.00 in Snow Light Snow
8:53 AM 28.9 °F 20.4 °F 16.0 °F 58% 30.00 in 10.0 mi NW 9.2 mph - 0.00 in   Overcast
9:53 AM 28.9 °F 20.4 °F 16.0 °F 58% 30.00 in 10.0 mi NNW 9.2 mph - N/A   Overcast
10:53 AM 30.0 °F 19.5 °F 18.0 °F 61% 30.00 in 10.0 mi NW 13.8 mph - N/A   Overcast
11:53 AM 28.0 °F 15.7 °F 18.0 °F 66% 30.01 in 10.0 mi WNW 17.3 mph 23.0 mph 0.00 in   Overcast
12:53 PM 28.9 °F 17.7 °F 18.0 °F 64% 29.99 in 10.0 mi NNW 15.0 mph 28.8 mph N/A   Overcast
1:53 PM 30.0 °F 19.1 °F 16.0 °F 56% 29.99 in 10.0 mi NW 15.0 mph 20.7 mph N/A   Overcast
2:53 PM 30.0 °F 21.1 °F 15.1 °F 54% 30.00 in 10.0 mi NW 10.4 mph 17.3 mph N/A   Overcast
3:53 PM 30.9 °F 21.2 °F 12.9 °F 47% 29.97 in 10.0 mi WNW 12.7 mph - N/A   Scattered Clouds
4:53 PM 30.9 °F 21.2 °F 12.9 °F 47% 30.01 in 10.0 mi NW 12.7 mph 18.4 mph N/A   Partly Cloudy
5:53 PM 26.1 °F 19.4 °F 14.0 °F 60% 30.04 in 10.0 mi WNW 5.8 mph - N/A   Clear
6:53 PM 25.0 °F 20.7 °F 14.0 °F 63% 30.02 in 10.0 mi Variable 3.5 mph - N/A   Clear
7:53 PM 21.9 °F 15.7 °F 12.9 °F 68% 30.01 in 10.0 mi ENE 4.6 mph - N/A   Clear
8:53 PM 21.0 °F 12.4 °F 12.0 °F 68% 30.01 in 10.0 mi NNE 6.9 mph - N/A   Clear
9:53 PM 19.9 °F 10.1 °F 12.0 °F 71% 30.00 in 10.0 mi NE 8.1 mph - N/A   Clear
10:53 PM 16.0 °F - 10.0 °F 77% 30.01 in 10.0 mi Calm Calm - N/A   Clear
11:53 PM 17.1 °F 3.6 °F 8.1 °F 68% 30.01 in 10.0 mi NNE 12.7 mph - N/A   Clear